Weather Service Report


200 
ASUS43 KLMK 300210
RWRKY 
KENTUCKY REGIONAL WEATHER ROUNDUP
NATIONAL WEATHER SERVICE LOUISVILLE KY
1000 PM EDT MON MAY 29 2017

NOTE "FAIR" INDICATES FEW OR NO CLOUDS BELOW 12,000 FEET
WITH NO SIGNIFICANT WEATHER AND/OR OBSTRUCTIONS TO VISIBILITY.

KYZ001>023-026-027-061>063-070>075-300300-
WESTERN AND SOUTH CENTRAL KENTUCKY
  
CITY           SKY/WX    TMP DP  RH WIND       PRES   REMARKS
PADUCAH        CLOUDY    76  56  49 SW7       29.94S                  
HENDERSON      MOCLDY    74  59  59 S7        29.92F                  
OWENSBORO      CLEAR     71  60  68 S8        29.93F                  
HOPKINSVILLE   CLEAR     72  62  71 SW3       29.98R                  
BOWLING GREEN  CLEAR     74  63  68 S6        29.98R                  
GLASGOW        CLOUDY    71  61  70 CALM      30.00R                  
$$

KYZ024-025-028>034-038-045-046-053-300300-
NORTH CENTRAL KENTUCKY
  
CITY           SKY/WX    TMP DP  RH WIND       PRES   REMARKS
LOUISVILLE/SDF MOCLDY    76  57  51 S8        29.94R                  
LOUISVILLE/LOU CLEAR     76  58  53 S5        29.95R                  
FORT KNOX      CLEAR     69  59  70 SW5       29.95R                  
$$

KYZ035>037-039>044-047>052-055>060-089>105-300300-
NORTHEAST KENTUCKY
  
CITY           SKY/WX    TMP DP  RH WIND       PRES   REMARKS
LEXINGTON      CLOUDY    71  58  63 S8        29.99R                  
COVINGTON      MOCLDY    67  56  67 S6        29.94R                  
FRANKFORT      CLOUDY    69  58  67 S5        29.96R                  
$$

KYZ054-064>069-076>088-106>120-300300-
SOUTHEAST KENTUCKY
  
CITY           SKY/WX    TMP DP  RH WIND       PRES   REMARKS
JACKSON        CLOUDY    68  60  75 CALM      30.01R                  
LONDON         CLOUDY    68  62  81 CALM      30.02R                  
SOMERSET       CLOUDY    64  59  82 CALM      30.03R                  
MIDDLESBORO    CLOUDY    68  64  87 CALM      30.03R                  
MONTICELLO     PTCLDY    66  63  90 W12       30.04R                  
$$

  

Return to Home page


Western Regional Climate Center, wrcc@dri.edu